Weather History for Campo, CA

Change the Weather History Date:

Thursday, September 27, 2012

  Actual Average Record
Temperature  
Mean Temperature 70 °F 66 °F  
Max Temperature 91 °F 86 °F 99 °F (1992)
Min Temperature 49 °F 46 °F 34 °F (1988)
Degree Days  
Heating Degree Days 0 2  
Month to date heating degree days 0 31  
Since 1 July heating degree days 9 45  
Cooling Degree Days 5 3  
Month to date cooling degree days 230 153  
Year to date cooling degree days 884 803  
Growing Degree Days 21 (Base 50)    
Moisture  
Dew Point 40 °F    
Average Humidity 38    
Maximum Humidity 59    
Minimum Humidity 16    
Precipitation  
Precipitation 0.00 in 0.01 in 0.31 in (1984)
Month to date precipitation 0.52 0.30  
Year to date precipitation 7.47 11.47  
Since 1 July precipitation 1.42 1.32  
Snow  
Snow 0.00 in - - ()
Month to date snowfall 0.0  
Year to date snowfall 0.0  
Since 1 July snowfall 0.0  
Snow Depth 0.00 in    
Sea Level Pressure  
Sea Level Pressure 29.85 in    
Wind  
Wind Speed 7 mph (ENE)    
Max Wind Speed 20 mph    
Max Gust Speed 24 mph    
T = Trace of Precipitation, MM = Missing Value Source: NWS Daily Summary

Daily Weather History Graph

Daily Weather History Graph

Search for Another Location

Airport:

Trip Planner

Search our weather history database for the weather conditions in past years. The results will help you decide how hot, cold, wet, or windy it might be!

Date:

Astronomy

Sep. 27, 2012 Rise Set
Actual Time 6:37 AM PDT 6:35 PM PDT
Civil Twilight 6:13 AM PDT 6:59 PM PDT
Nautical Twilight 5:44 AM PDT 7:28 PM PDT
Astronomical Twilight 5:15 AM PDT 7:56 PM PDT
Moon 5:04 PM PDT (9/27) 4:17 AM PDT (9/27)
Length of Visible Light 12h 46m
Length of Day
11h 57m
Waxing Gibbous, 94% of the Moon is Illuminated
Sep 27
Waxing Gibbous
Sep 29
Full
Oct 8
Last Quarter
Oct 15
New
Oct 21
First Quarter

Hourly Weather History & Observations

Time (PDT) Temp. Dew Point Humidity Pressure Visibility Wind Dir Wind Speed Gust Speed Precip Events Conditions
12:52 AM 57.9 °F 39.0 °F 49% 29.82 in - Calm Calm - N/A   Unknown
1:52 AM 57.0 °F 37.0 °F 47% 29.83 in - Calm Calm - N/A   Unknown
2:52 AM 52.0 °F 37.0 °F 57% 29.84 in - Calm Calm - N/A   Unknown
3:52 AM 51.1 °F 37.0 °F 59% 29.84 in - NNE 4.6 mph - N/A   Unknown
4:52 AM 54.0 °F 36.0 °F 51% 29.83 in - NE 3.5 mph - N/A   Unknown
5:52 AM 54.0 °F 37.0 °F 53% 29.84 in - Calm Calm - N/A   Unknown
6:52 AM 51.1 °F 37.9 °F 61% 29.87 in - NE 3.5 mph - N/A   Unknown
7:52 AM 57.9 °F 41.0 °F 53% 29.88 in - Calm Calm - N/A   Unknown
8:52 AM 75.0 °F 42.1 °F 31% 29.86 in - Calm Calm - N/A   Unknown
9:52 AM 84.9 °F 44.1 °F 24% 29.85 in - ENE 15.0 mph 21.9 mph N/A   Unknown
10:52 AM 87.1 °F 39.0 °F 18% 29.86 in - ENE 15.0 mph 23.0 mph N/A   Unknown
11:52 AM 87.1 °F 37.9 °F 18% 29.85 in - East 9.2 mph 24.2 mph N/A   Unknown
12:52 PM 91.0 °F 39.0 °F 16% 29.83 in - East 8.1 mph 19.6 mph N/A   Unknown
1:52 PM 88.0 °F 45.0 °F 22% 29.81 in - SW 19.6 mph 23.0 mph N/A   Unknown
2:52 PM 87.1 °F 45.0 °F 23% 29.82 in - SW 12.7 mph 18.4 mph N/A   Unknown
3:52 PM 86.0 °F 42.1 °F 21% 29.82 in - SW 13.8 mph - N/A   Unknown
4:52 PM 84.9 °F 41.0 °F 21% 29.82 in - SW 10.4 mph - N/A   Unknown
5:52 PM 82.0 °F 45.0 °F 27% 29.83 in - SW 8.1 mph - N/A   Unknown
6:52 PM 77.0 °F 42.1 °F 29% 29.86 in - West 3.5 mph - N/A   Unknown
7:52 PM 66.0 °F 42.1 °F 42% 29.89 in - Calm Calm - N/A   Unknown
8:52 PM 64.0 °F 42.1 °F 45% 29.88 in - NE 3.5 mph - N/A   Unknown
9:52 PM 63.0 °F 41.0 °F 45% 29.88 in - NE 3.5 mph - N/A   Unknown
10:52 PM 59.0 °F 41.0 °F 51% 29.89 in - ENE 5.8 mph - N/A   Unknown
11:52 PM 57.9 °F 41.0 °F 53% 29.88 in - Calm Calm - N/A   Unknown